Погода Верещагино

Погода Верещагино : погода сейчас, прогноз погоды и архив. Всё, что Вы хотите узнать о погоде Верещагино!

Поиск расширенной информации на нашем сайте:

Другие новости

Новости СМИ2

Главная страница сайта

Новости сайта

03.07.2017

Напоминаем, что на нашем специализированном сайте Метеоцентр.Азия вы можете получить высокодетализированные автоматические прогнозы погоды по пунктам России, СНГ и мира в авиационном формате (включающие направление и скорость ветра, видимость, явления погоды, количество и форму облачности, нижнюю и верхнюю границу облачности).


Погода Верещагино - сегодня

Время (UTC), дата Ветер
(°,м/с) 
Видим.   Явления Облачность Т
(°С)
Тd
(°С)
f(%) Тe
(°С)
Pmin
(гПа)
dP
(гПа)
Po
(мм)
O2
(г/м3)
Тmin Tmax R s Состояние
почвы
03 23.07.17 360 (С) 20000 м    ясно 
+20.1 +12.3 61 +24  1016.7  -0.3  760  283           
06 23.07.17 тихо ()   20000 м    ясно 
+25.5 +13.8 48 +32  1015.9  -0.9  759  277           
09 23.07.17 270 (З) 20000 м    ясно 
+28.1 +10.2 33 +29  1014.7  -1.1  758  275           
12 23.07.17 360 (С) 20000 м    ясно 
+27.1 +9.7 34 +28  1013.6  -1.1  758  276    +28.5       
15 23.07.17 020 (С) 20000 м    ясно 
+22 +13.9 60 +29  1013.6  -0.1  758  280           
18 23.07.17 тихо ()   н/о    ясно 
+13.7 +12 89 +17  1013.2  -0.5  757  288           
21 23.07.17 тихо ()   20000 м    ясно 
+11 +10 94 +12  1012.9  -0.4  757  291           
00 24.07.17 тихо ()   20000 м    ясно 
+14.9 +12.2 84 +19  1012.4  -0.4  757  287  +10.4         
03 24.07.17 050 (СВ) 20000 м    ясно 
+21 +14.1 65 +28  1011.9  -0.5  756  280           
06 24.07.17 270 (З) 20000 м    1/1 1000 м 
[Cu hum]
+26.9 +13.8 44 +33  1010.5  -1.2  755  274           
09 24.07.17 тихо ()   20000 м    ясно 
+29.3 +11.8 34 +33  1008.9  -1.6  754  272           
12 24.07.17 тихо ()   20000 м    ясно 
+29.9 +14.7 40 +38  1008  -0.9  753  271    +30.4       
15 24.07.17 050 (СВ) 20000 м    1/0 верхняя 
[Ci fib]
+22.4 +16.5 69 +34  1007.3  -0.8  753  277           
18 24.07.17 050 (СВ) н/о    4/0 средняя, верхняя 
[Ac cast|Ci sp]
+15.8 +13.6 87 +23  1007.1  -0.2  753  284           
21 24.07.17 тихо ()   20000 м    8/5 600 м кучево-дожд., верхняя 
[Cb cap|Cs]
+13.7 +12 89 +18  1006.2  -1  752  286           
00 25.07.17 110 (В) 20000 м    5/3 600 м средняя, верхняя 
[Cu Sc|Ac lent|Cc]
+14.9 +12.5 86 +21  1006  -0.2  752  285  +13         
03 25.07.17 тихо ()   20000 м    3/1 600 м кучево-дожд., верхняя 
[Cb cap|Ci fib]
+21 +13.9 64 +28  1005.8  -0.1  752  278           
06 25.07.17 270 (З) 20000 м    6/3 600 м кучево-дожд., верхняя 
[Cb cap|Ci sp]
+26 +14.7 50 +34  1004.4  -1.3  751  273           
09 25.07.17 320 (СЗ) 20000 м    10/4 600 м кучево-дожд., верхняя 
[Cb cap|Cs]
+27.9 +12.5 39 +33  1003.2  -1.2  750  272           
12 25.07.17 тихо ()   20000 м    10/3 600 м кучево-дожд., верхняя 
[Cb cap|Cs]
+23.9 +15.1 58 +33  1003.1  -0.2  750  275    +29.1       
15 25.07.17 110 (В) 20000 м    10/1 1000 м верхняя 
[Sc diur, vesp|Cs]
+19.5 +17 85 +33  1002.6  -0.5  749  278           
18 25.07.17 110 (В) н/о    9/0 средняя, верхняя 
[Ac lent|Cs]
+16 +14.4 90 +25  1002.2  -0.4  749  282           
21 25.07.17 140 (ЮВ) н/о    9/3 1000 м средняя, верхняя 
[Sc|Ac lent|Cs]
+15.5 +14.3 93 +25  1001.7  -0.6  749  282           
00 26.07.17 360 (С) 20000 м    10/4 1000 м средняя, верхняя 
[Sc|Ac lent|Cs]
+18 +15.8 87 +29  1001.4  -0.2  748  280  +15.3         
03 26.07.17 340 (С) 20000 м    9/4 600 м кучево-дожд., средняя, верхняя 
[Cb cap|Ac lent|Cs]
+21 +14.7 67 +29  1002  0.6  749  277           
Время (UTC), дата Ветер
(°,м/с) 
Видим.   Явления Облачность Т
(°С)
Тd
(°С)
f(%) Тe
(°С)
Pmin
(гПа)
dP
(гПа)
Po
(мм)
O2
(г/м3)
Тmin Tmax R s Состояние
почвы

Для получения пояснительной информации подведите курсор к названию столбца.

ПОГОДА Верещагино - архив

Всё, что Вы хотите узнать о погоде Верещагино - удобно и подробно!

Выберите нужную дату (начиная с 1 января 2015* года) и нажмите кнопку "Найти".
Будут отображены архивные сводки погоды по пункту Верещагино, начиная с указанной даты.


Отображать данные в формате CSV (для использования в таблицах Excel)


Внимание! Наш архив погоды предназначен исключительно для личного некоммерческого использования в познавательных целях. Если Вам необходимы официальные справки о состоянии погоды (для производственных, юридических, коммерческих и т.п. целей), обращайтесь в органы Росгидромета.

*Примечание: данная дата относится к архиву по метеостанциям СССР (Россия, СНГ, Балтия).
Архив по метеостанциям Зарубежной Европы и Азии (кроме Китая) хранится 10 дней, по другим регионам земного шара (Китай, Африка, Америка, Австралия, Океания) - 1 день.

Верещагино - район местоположения метеостанции


Название, широта, долгота, высота метеостанции:
Верещагино 64.2°ш. 87.6°д. 26 м над ур. моря [Российская Федерация]

Дополнительная информация

В oтличие oт бoльшинства пoгoдных сайтoв мы публикуем пoдрoбную метеoинфoрмацию в детальнoм прoфессиoнальнoм фoрмате.

Характеристики температуры и влажнoсти вoздуха измеряются на высoте 2 м в тени вдали oт зданий и деревьев.
Скoрoсть ветра измеряется на высoте 10 м (на урoвне рoста челoвека скoрoсть ветра ниже в 1.5-2 раза). Если метеoстанция нахoдится в гoрoде или в лесу, тo скoрoсть ветра занижена на 2-4 м/с пo сравнению с oткрытым местoм. Скoрoсть ветра над акватoриями крупных рек и oзёр, а также на вершинах хoлмoв на 2-5 м/с выше, чем в oбычных услoвиях.
Атмoсфернoе давление в разных тoчках местнoсти мoжет значительнo oтличаться oт давления на метеoстанции, в зависимoсти oт услoвий рельефа (при пoдъёме на 10 м давление пoнижается примернo на 1 мм рт.ст.).